Weather in Idrinskoye

Russia / Krasnoyarsk Krai     54°22′11″N   92°07′44″E
temp.,
°C
wind,
m/s
gust,
m/s
humid.,
%
clouds,
%
prec.,
mm/h
press.,
hPa
HPBL,
m
26 june, sun
sun2601:00+16se228998 0.0 100612
04:00+14se2292100 0.0 100612
07:00+17se238222 0.0 1007185
10:00+22sse45665 0.0 1006644
13:00+26sse35545 0.0 10041057
16:00+28se24470 0.0 10031281
19:00+26ese24680 0.0 1001142
22:00+20se22670 0.0 100011
27 june, mon
mon2701:00+19se2267100 0.0 99911
04:00+17sse2181100 0.7 100111
07:00+20sse127985 0.9 1003110
10:00+21se2378100 0.0 1002213
13:00+26sse56610 0.0 1001732
16:00+29e555430 0.0 996929
19:00+20e259497 13.4 999130
22:00+18sse41291100 0.1 1000305
28 june, tue
tue2801:00+17sw3895100 0.9 1001274
04:00+15s229796 1.6 100222
07:00+18wnw1490100 1.9 1004385
10:00+18wnw3467100 0.2 1005762
13:00+20wnw346099 0.2 10051171
16:00+21nnw336024 0.1 1005901
19:00+20nne1364100 0.1 1005454
22:00+16nnw1170100 0.0 100511
29 june, wed
wed2901:00+15nw2270100 0.0 100745
04:00+12nnw22856 0.0 100816
07:00+14nnw12770 0.0 1008150
10:00+19n016034 0.0 1007768
13:00+22sw24490 0.0 10051685
16:00+23wsw13470 0.0 10041641
19:00+22ene236587 0.0 1002111
22:00+17e227045 0.0 100112
30 june, thu
thu3001:00+15e2269100 0.0 100011
04:00+16ese2264100 0.0 99840
07:00+17ene1174100 0.1 99957
10:00+21ese3565100 0.1 997293
13:00+25se4657100 0.1 996541
16:00+25wnw7760100 0.1 9961061
19:00+16nne1594100 4.6 1002278
22:00+15ssw1197100 2.3 100411